Location: Bord�res
(43.2000°N, 0.2167°W)
Time: 10:55:58
(UTC+00:00)

SL-16 R/B - Pass Details

Date: 03 March 2021
Orbit: 843 x 845 km, 71.0° (Epoch: 20 April)

Event Time Altitude Azimuth Distance (km) Brightness Sun altitude
Rises 19:29:18 0° 233° (SW) 3,390 6.0 -18.4°
Reaches altitude 10° 19:32:00 10° 243° (WSW) 2,460 5.4 -18.9°
Maximum altitude 19:37:00 32° 305° (NW) 1,422 4.0 -19.8°
Drops below altitude 10° 19:42:03 10° 8° (N) 2,474 4.7 -20.7°
Sets 19:44:47 0° 18° (NNE) 3,414 5.3 -21.1°
